GW2134 Weather Reports


time (UTC)temp
F
wind
direction
speed
knots
gust
knots
rain 1hr
in
rain 24hr
in
rain mn
in
humidity
%
barometer
mb
20260505041559 51 334 0.9 3.5 0.02 0.05 0.05 88 1015.9
20260505040057 51 360 0.9 2.6 0.03 0.05 0.05 87 1016.0
20260505034558 52 0 0.0 2.6 0.03 0.05 0.05 87 1016.0
20260505033052 52 344 0.0 2.6 0.03 0.04 0.04 86 1016.3
20260505031603 52 17 0.9 3.5 0.03 0.03 0.03 85 1016.5
20260505030054 52 360 0.9 5.2 0.02 0.02 0.02 84 1016.7
20260505024559 52 5 1.7 4.3 0.01 0.01 0.01 82 1016.8
20260505023054 53 337 1.7 4.3 0.00 0.00 0.00 79 1016.9
20260505021555 54 0 0.9 4.3 0.00 0.00 0.00 76 1017.1
20260505020054 54 15 0.9 3.5 0.00 0.00 0.00 75 1017.3
20260505014607 54 360 0.9 3.5 0.00 0.00 0.00 74 1017.4
20260505013051 54 11 1.7 4.3 0.00 0.00 0.00 75 1017.5
20260505011605 54 15 0.0 3.5 0.00 0.00 0.00 74 1017.5
20260505010054 54 22 1.7 3.5 0.00 0.00 0.00 74 1017.7
20260505004555 54 25 1.7 3.5 0.00 0.00 0.00 73 1018.1
20260505003053 55 9 0.9 3.5 0.00 0.00 0.00 73 1018.4
20260505001550 54 355 0.9 6.1 0.00 0.00 0.00 72 1018.7
20260505000105 54 13 0.9 3.5 0.00 0.00 0.00 71 1018.8
20260504234552 55 11 0.9 3.5 0.00 0.00 0.00 70 1018.9
20260504233107 54 360 0.9 3.5 0.00 0.00 0.00 70 1019.1
20260504231551 54 0 1.7 3.5 0.00 0.00 0.00 69 1019.3
20260504230053 54 13 1.7 4.3 0.00 0.00 0.00 68 1019.5
20260504224602 54 333 2.6 3.5 0.00 0.00 0.00 69 1019.7
20260504223119 55 335 0.9 4.3 0.00 0.00 0.00 69 1019.6
20260504221552 55 98 1.7 2.6 0.00 0.00 0.00 69 1019.7
20260504220053 55 5 0.9 3.5 0.00 0.00 0.00 69 1019.8
20260504214555 56 19 0.9 1.7 0.00 0.00 0.00 69 1019.8
20260504213104 56 0 0.0 1.7 0.00 0.00 0.00 71 1019.9
20260504211553 57 12 0.9 2.6 0.00 0.00 0.00 71 1019.9
20260504210101 57 0 0.0 2.6 0.00 0.00 0.00 71 1020.1
20260504204555 57 0 0.0 3.5 0.00 0.00 0.00 70 1020.1
20260504203108 58 5 0.9 2.6 0.00 0.00 0.00 69 1020.1
20260504201557 59 0 0.0 1.7 0.00 0.00 0.00 67 1020.2
20260504200106 59 0 0.0 1.7 0.00 0.00 0.00 66 1020.2
20260504194553 60 0 0.0 1.7 0.00 0.00 0.00 65 1020.0
20260504193058 60 0 0.0 4.3 0.00 0.00 0.00 63 1019.9
20260504191557 60 153 0.0 3.5 0.00 0.00 0.00 57 1019.7
20260504190105 60 169 1.7 6.1 0.00 0.00 0.00 58 1019.6
20260504184559 60 0 0.0 1.7 0.00 0.00 0.00 60 1019.6
20260504183057 61 0 1.7 7.8 0.00 0.00 0.00 58 1019.5
20260504181554 61 140 2.6 6.1 0.00 0.00 0.00 57 1019.7
20260504180059 62 163 1.7 6.1 0.00 0.00 0.00 55 1019.7
20260504174609 62 0 0.0 4.3 0.00 0.00 0.00 53 1019.7
20260504173055 63 141 1.7 7.8 0.00 0.00 0.00 51 1019.6
20260504171558 63 156 1.7 5.2 0.00 0.00 0.00 50 1019.6
20260504081553 64 113 0.0 5.2 0.00 0.00 0.00 42 1021.1